Location: Augsburg
(48.3836°N, 10.8929°E)
Time: 03:46:36
(UTC+01:00)

ISS - Pass Details

Date: 07 December 2021
Orbit: 413 x 422 km, 51.6° (Epoch: 24 January)

Event Time Altitude Azimuth Distance (km) Brightness Sun altitude
Rises 18:42:13 0° 282° (WNW) 2,382 1.3 -22.3°
Reaches altitude 10° 18:45:23 10° 250° (WSW) 1,508 0.1 -22.8°
Maximum altitude 18:46:46 12° 226° (SW) 1,385 -0.4 -23.0°
Drops below altitude 10° 18:48:08 10° 202° (SSW) 1,501 -0.6 -23.3°
Enters shadow 18:49:52 - 180° (S) 1,909 -0.3 -23.5°
